Regional Weather Roundup
Issued by NWS

Current Version | Previous Version | Text Only | Print | Product List | Glossary On
Versions: 1 2 3 4 5 6 7 8 9 10 11 12 13 14 15 16 17 18 19 20 21 22 23 24 25 26 27 28 29 30 31 32 33 34 35 36 37 38 39 40 41 42 43 44 45 46 47 48 49 50
000
ASUS42 KTBW 212017
RWRFL
FLORIDA REGIONAL WEATHER ROUNDUP
NATIONAL WEATHER SERVICE TAMPA BAY RUSKIN FL
300 PM EST THU FEB 21 2019

NOTE: "FAIR" INDICATES FEW OR NO CLOUDS BELOW 12,000 FEET WITH NO
SIGNIFICANT WEATHER AND/OR OBSTRUCTIONS TO VISIBILITY.

FLZ001>010-012>015-112-114-115-212100-
PANHANDLE FLORIDA

CITY           SKY/WX    TMP DP  RH WIND       PRES   REMARKS
PENSACOLA      CLOUDY    71  69  93 SE9       30.03S FOG
PENSACOLA NAS  FOG       72  71  97 SE13      30.02F VSB 3/4
MILTON NAS     CLOUDY    76  69  79 S9        30.03
CRESTVIEW      CLOUDY    75  71  87 S8        30.06S
DUKE FIELD     DRIZZLE   75  72  88 S13       30.04F
VALPARAISO     CLOUDY    72  69  90 SE7       30.04S
MARY ESTHER    CLOUDY    71  70  97 SE10      30.03
PANAMA CITY    CLOUDY    75  70  84 SE9       30.05F
TYNDALL AFB    CLOUDY    73  70  89 S13       30.06S FOG
APALACHICOLA   CLOUDY    72  66  81 S10       30.07F

STATION/POSITION SKY/WX   TEMP    WIND        PRES    WAVE   SWELL
                          AIR SEA DIR/SP/G            HT/PER HT/PER
                          (F)     (DEG/KT/KT) (MB)    (FT/S) (FT/S)
30.1N   87.6W              67      90/  8/ 10 1016.6F   3/ 7   3/ 7
29.2N   88.2W                     150/  8/ 10 1016.0F   3/ 7   3/ 7
PANAMA CITY BEAC           67 64  120/ 11/ 11 1018.2F
TOWER C                    67     160/  9/ 10 1018.2F

$$
FLZ011-016>038-118-127-128-134-139-239-212100-
NORTH FLORIDA

CITY           SKY/WX    TMP DP  RH WIND       PRES   REMARKS
MARIANNA       PTSUNNY   82  66  58 S13G21    30.03F
TALLAHASSEE    FAIR      82  66  58 S15G21    30.06F
PERRY          FAIR      83  67  57 W13G20    30.08S
LIVE OAK       MOSUNNY   86  61  42 VRB6G13   30.05F
CROSS CITY     FAIR      85  61  44 S7        30.06F
LAKE CITY      FAIR      82  59  44 SE5       30.06F
GAINESVILLE    PTSUNNY   88  63  43 SE9       30.08F
WILLISTON        N/A    N/A N/A N/A MISG        N/A
PALATKA        FAIR     N/A N/A N/A S6        30.08F
MAYPORT NAS    FAIR      77  69  76 SE20      30.08F
JACKSONVILLE   FAIR      85  60  42 S9        30.06F
JAX NAS        PTSUNNY   84  61  45 S10       30.08F
JAX CECIL      MOSUNNY   90  61  37 S8        30.06F
FERNANDINA BEA FAIR      78  68  73 SE18      30.08F
ST AUGUSTINE   FAIR      77  70  79 SE14      30.10F
PALM COAST     PTSUNNY   79  66  65 SE14      30.09F

STATION/POSITION SKY/WX   TEMP    WIND        PRES    WAVE   SWELL
                          AIR SEA DIR/SP/G            HT/PER HT/PER
                          (F)     (DEG/KT/KT) (MB)    (FT/S) (FT/S)
SHELL POINT      NOT AVBL
KEATON BEACH               73     170/  9/ 10 1018.9F
CEDAR KEY                  75     210/  8/  9 1018.4F
FERNANDINA                 77 65  130/ 10/ 14 1019.2F
30.7N   81.3W                 62                N/A     3/ 8
MAYPORT                    76 63  150/  8/ 14 1018.8F
31.4N   80.9W              65 61  360/  2/  8 1019.5R   3/ 8   3/ 8
ST AUGUSTINE               67 63  140/  5/  6 1019.4F

$$
FLZ040-043>046-052-053-057-058-063-144-212100-
INTERIOR CENTRAL FLORIDA

CITY           SKY/WX    TMP DP  RH WIND       PRES   REMARKS
OCALA          CLOUDY    84  66  54 SE8       30.08F
LEESBURG       PTSUNNY   78  66  66 VRB5      30.09F
SANFORD        CLOUDY    77  70  79 NW10      30.08F
ORLANDO EXEC   FAIR      82  68  62 S6        30.08F
ORLANDO INTL   FAIR      83  68  60 E7        30.07F
WINTER HAVEN   FAIR      85  67  54 SE10      30.07F
LAKELAND       PTSUNNY   82  66  57 S12       30.07F
BARTOW         PTSUNNY   86  66  51 SE10      30.06F
SEBRING        CLOUDY    83  69  61 SE8       30.07F
OKEECHOBEE     FAIR      84  68  58 S7G16     30.08F

$$
FLZ041-047-054-059-064-141-147-212100-
EAST CENTRAL FLORIDA

CITY           SKY/WX    TMP DP  RH WIND       PRES   REMARKS
ORMOND BEACH   MOSUNNY   77  73  88 SE12      30.10F
DAYTONA BEACH  PTSUNNY   79  70  74 E8        30.09F
DELAND         RAIN      73  70  88 SW9       30.10R FOG
NEW SMYRNA BEA MOSUNNY   79  68  69 SE13      30.10F
JFK SPACE CTR  FAIR      82  70  66 S12G21    30.08F
TITUSVILLE     MOSUNNY   84  70  61 SE18      30.09F
CAPE CANAVERAL FAIR      80  71  71 SE15      30.08F
PATRICK AFB    FAIR      76  70  81 SE10      30.09F
MELBOURNE      FAIR      80  69  69 SE14      30.09F
VERO BEACH     FAIR      82  69  64 SE23      30.09F
FT PIERCE      FAIR      83  67  58 SE18      30.08F
STUART         MOSUNNY   84  68  58 SE14G23   30.10F

STATION/POSITION SKY/WX   TEMP    WIND        PRES    WAVE   SWELL
                          AIR SEA DIR/SP/G            HT/PER HT/PER
                          (F)     (DEG/KT/KT) (MB)    (FT/S) (FT/S)
28.5N   80.2W              72     140/  4/  4 1020.1F   5/ 8   5/ 8
28.9N   78.5W              76 78  150/ 12/ 16 1021.3F   5/ 8   5/ 8
TRIDENT PIER               76 70  140/  7/ 12 1020.2F
28.4N   80.5W                 67                N/A     3/ 8

$$
FLZ050-056-061-142-242-148-248-149-249-151-251-155-255-
160-260-212100-
WEST CENTRAL FLORIDA

CITY           SKY/WX    TMP DP  RH WIND       PRES   REMARKS
CRYSTAL RIVER  PTSUNNY   81  68  65 NW7       30.07F
INVERNESS      PTSUNNY   82  72  69 SE7       30.08F
BROOKSVILLE    CLOUDY    83  68  60 W14       30.07F
CLEARWATER AIR PTSUNNY   82  64  54 SW13      30.06F
ST PETE CLEARW FAIR      84  65  52 S14       30.07F
TAMPA INTL     FAIR      82  65  56 S8        30.07F
TAMPA EXEC     FAIR      84  64  51 SW8       30.07F
PLANT CITY     FAIR      88  66  48 S8        30.09S
MACDILL AFB    FAIR      81  65  57 SW7       30.07F
PETER O KNIGHT CLOUDY    82  68  61 S6        30.07F
ST PETERSBURG  PTSUNNY   82  70  66 S12       30.05F
SARASOTA       FAIR      83  71  67 S17G25    30.05F
VENICE         FAIR      82  73  74 S14       30.07F

STATION/POSITION SKY/WX   TEMP    WIND        PRES    WAVE   SWELL
                          AIR SEA DIR/SP/G            HT/PER HT/PER
                          (F)     (DEG/KT/KT) (MB)    (FT/S) (FT/S)
27.3N   84.2W                 73                N/A     3/ 5
CLEARWATER BEACH           74 72  210/ 13/ 13 1018.5F
MIDDLE TAMPA BAY           76     190/  3/  4 1018.5F
VENICE                     75 71  170/  9/ 11 1018.1F

$$
FLZ066-069-070-075>078-162-262-165-265-212100-
SOUTHWEST FLORIDA AND KEYS

CITY           SKY/WX    TMP DP  RH WIND       PRES   REMARKS
PUNTA GORDA    CLOUDY    82  69  64 W12       30.07F
FT MYERS       CLOUDY    83  68  60 SW12      30.05F
SOUTHWEST INTL FAIR      80  70  71 SW13      30.06F
NAPLES         FAIR      84  68  58 S16       30.05F
MARCO ISLAND   FAIR     N/A N/A N/A S10       30.07F
IMMOKALEE      PTSUNNY   79  72  78 VRB7G13   30.05S
MARATHON       FAIR      86  72  62 SE12      30.05F
KEY WEST NAS   FAIR      85  72  65 SE17      30.05F
KEY WEST INTL  FAIR      83  73  72 SE16      30.05F

STATION/POSITION SKY/WX   TEMP    WIND        PRES    WAVE   SWELL
                          AIR SEA DIR/SP/G            HT/PER HT/PER
                          (F)     (DEG/KT/KT) (MB)    (FT/S) (FT/S)
NAPLES                     78 75  150/ 12/ 14 1017.9F
26.0N   85.6W              79 80  120/ 12/ 16 1016.5F   4/ 6   3/ 6
DRY TORTUGAS               78     140/ 14/ 16 1017.4F
SAND KEY                   78                 1017.5F
SOMBRERO KEY               78                 1016.9F
LONG KEY                   79 79  120/ 14/ 16 1017.7F
MOLASSES REEF              78 78  150/ 12/ 13 1018.7F

$$
FLZ067-068-071>074-168-172>174-212100-
SOUTHEAST FLORIDA

CITY           SKY/WX    TMP DP  RH WIND       PRES   REMARKS
W PALM BEACH   FAIR      82  66  58 SE13      30.10F
BOCA RATON     MOSUNNY   82  70  65 SE16      30.10F
FT LAUDER-EXEC FAIR      84  69  60 E14G21    30.09F
FT LAUDERDALE  FAIR      81  70  69 SE13      30.09F
POMPANO BEACH  FAIR      82  69  64 SE14      30.10F
PEMBROKE PINES FAIR      83  67  58 E14       30.10F
OPA LOCKA      FAIR      84  66  54 SE16G22   30.09F
MIAMI          FAIR      82  69  64 SE10      30.09F
WEST KENDALL   FAIR      84  67  56 SE13      30.07F
HOMESTEAD      FAIR      82  68  61 SE10G17   30.07F

STATION/POSITION SKY/WX   TEMP    WIND        PRES    WAVE   SWELL
                          AIR SEA DIR/SP/G            HT/PER HT/PER
                          (F)     (DEG/KT/KT) (MB)    (FT/S) (FT/S)
PORT EVERGLADES            80     130/  7/ 10 1019.2F
VIRGINIA KEY               79 79  120/  9/ 12 1018.4F
LAKE WORTH                 78 78  150/ 13/ 15 1020.4F
FOWEY ROCKS                77 78  120/ 12/ 13 1019.4F
SETTLEMENT POINT           79     160/  8/ 10 1020.1F

$$




USA.gov is the U.S. government's official web portal to all federal, state and local government web resources and services.